Palmdale, CA

7:42 AM PST on February 23, 2017 (GMT -0800)
Palmdale Af Plant 42

Weather History for KPMD - May, 2012

Change the Weather History Date:

Monday, May 7, 2012

  Actual Average Record
Temperature  
Mean Temperature 68 °F 65 °F  
Max Temperature 86 °F 80 °F 96 °F (2001)
Min Temperature 49 °F 50 °F 32 °F (1938)
Degree Days  
Heating Degree Days 0 3  
Month to date heating degree days 3 25  
Since 1 July heating degree days 2801 2875  
Cooling Degree Days 3 3  
Month to date cooling degree days 4 17  
Year to date cooling degree days 59 40  
Growing Degree Days 16 (Base 50)    
Moisture  
Dew Point 23 °F    
Average Humidity 29    
Maximum Humidity 50    
Minimum Humidity 8    
Precipitation  
Precipitation 0.00 in 0.01 in 0.12 in (1976)
Month to date precipitation 0.00 0.09  
Year to date precipitation 1.79 5.07  
Since 1 July precipitation 3.72  
Snow  
Snow 0.00 in - 0.00 in (1973)
Month to date snowfall 0.0  
Since 1 July snowfall 0.0  
Snow Depth 0.00 in    
Sea Level Pressure  
Sea Level Pressure 29.94 in    
Wind  
Wind Speed 9 mph (West)    
Max Wind Speed 29 mph    
Max Gust Speed 33 mph    
Visibility 10 miles    
Events      
T = Trace of Precipitation, MM = Missing Value Source: NWS Daily Summary

Daily Weather History Graph

Daily Weather History Graph

Search for Another Location

Airport or City:

Trip Planner

Search our weather history database for the weather conditions in past years. The results will help you decide how hot, cold, wet, or windy it might be!

Date:

Astronomy

May. 07, 2012 Rise Set
Actual Time 5:55 AM PDT 7:42 PM PDT
Civil Twilight 5:28 AM PDT 8:09 PM PDT
Nautical Twilight 4:55 AM PDT 8:43 PM PDT
Astronomical Twilight 4:20 AM PDT 9:18 PM PDT
Moon 9:55 PM PDT (5/7) 7:09 AM PDT (5/7)
Length of Visible Light 14h 41m
Length of Day
13h 46m
Waning Gibbous, 96% of the Moon is Illuminated
May 7
Waning Gibbous
May 12
Last Quarter
May 20
New
May 28
First Quarter
Jun 4
Full

Hourly Weather History & Observations

Time (PDT) Temp. Dew Point Humidity Pressure Visibility Wind Dir Wind Speed Gust Speed Precip Events Conditions
12:53 AM 62.1 °F 32.0 °F 32% 29.96 in 10.0 mi SW 4.6 mph - N/A   Clear
1:53 AM 57.0 °F 33.1 °F 40% 29.95 in 10.0 mi South 6.9 mph - N/A   Clear
2:53 AM 54.0 °F 30.9 °F 41% 29.96 in 10.0 mi South 6.9 mph - N/A   Clear
3:53 AM 53.1 °F 30.0 °F 41% 29.96 in 10.0 mi SSW 8.1 mph - N/A   Clear
4:53 AM 52.0 °F 30.0 °F 43% 29.96 in 10.0 mi South 5.8 mph - N/A   Clear
5:53 AM 48.9 °F 30.0 °F 48% 29.99 in 10.0 mi South 8.1 mph - N/A   Clear
6:53 AM 55.0 °F 32.0 °F 42% 30.00 in 10.0 mi South 6.9 mph - N/A   Clear
7:53 AM 64.0 °F 32.0 °F 30% 30.01 in 10.0 mi Calm Calm - N/A   Clear
8:53 AM 70.0 °F 30.0 °F 23% 30.01 in 10.0 mi East 5.8 mph - N/A   Clear
9:53 AM 75.0 °F 21.9 °F 14% 30.01 in 10.0 mi East 9.2 mph - N/A   Clear
10:53 AM 77.0 °F 12.9 °F 9% 30.00 in 10.0 mi NE 5.8 mph - N/A   Clear
11:53 AM 79.0 °F 12.9 °F 8% 29.98 in 10.0 mi North 6.9 mph - N/A   Clear
12:53 PM 81.0 °F 12.0 °F 7% 29.96 in 10.0 mi Variable 4.6 mph - N/A   Clear
1:53 PM 81.0 °F 12.9 °F 8% 29.94 in 10.0 mi Calm Calm - N/A   Clear
2:53 PM 82.0 °F 16.0 °F 8% 29.91 in 10.0 mi NW 8.1 mph 16.1 mph N/A   Clear
3:53 PM 82.9 °F 18.0 °F 9% 29.89 in 10.0 mi Variable 3.5 mph - N/A   Clear
4:53 PM 84.0 °F 15.1 °F 8% 29.88 in 10.0 mi WNW 24.2 mph 29.9 mph N/A   Clear
5:53 PM 81.0 °F 19.0 °F 10% 29.87 in 10.0 mi WNW 25.3 mph 32.2 mph N/A   Clear
6:53 PM 78.1 °F 17.1 °F 10% 29.88 in 10.0 mi WNW 23.0 mph 33.4 mph N/A   Clear
7:53 PM 73.9 °F 23.0 °F 15% 29.89 in 10.0 mi WNW 13.8 mph - N/A   Clear
8:53 PM 72.0 °F 28.0 °F 20% 29.89 in 10.0 mi WNW 13.8 mph - N/A   Clear
9:53 PM 69.1 °F 24.1 °F 18% 29.90 in 10.0 mi WNW 12.7 mph - N/A   Clear
10:53 PM 66.9 °F 19.0 °F 16% 29.92 in 10.0 mi North 5.8 mph - N/A   Clear
11:53 PM 62.1 °F 19.0 °F 19% 29.93 in 10.0 mi WNW 8.1 mph - N/A   Clear